Clayton Lake, ME

4:54 AM EDT on March 26, 2017 (GMT -0400)
Clayton Lake

Weather History for K40B - December, 2012

Change the Weather History Date:

Sunday, December 9, 2012

  Actual Average Record
Temperature  
Mean Temperature 28 °F -  
Max Temperature 36 °F 27 °F 36 °F (2012)
Min Temperature 19 °F 9 °F -20 °F (2000)
Degree Days  
Heating Degree Days 37    
Moisture  
Dew Point 22 °F    
Average Humidity 80    
Maximum Humidity 93    
Minimum Humidity 60    
Precipitation  
Precipitation 0.01 in - - ()
Sea Level Pressure  
Sea Level Pressure 30.16 in    
Wind  
Wind Speed 5 mph (SW)    
Max Wind Speed 10 mph    
Max Gust Speed 18 mph    
Averages and records for this station are not official NWS values.
T = Trace of Precipitation, MM = Missing Value Source: NWS Daily Summary

Daily Weather History Graph

Daily Weather History Graph

Search for Another Location

Airport or City:

Trip Planner

Search our weather history database for the weather conditions in past years. The results will help you decide how hot, cold, wet, or windy it might be!

Date:

Astronomy

Dec. 09, 2012 Rise Set
Actual Time 7:10 AM EST 3:50 PM EST
Civil Twilight 6:35 AM EST 4:25 PM EST
Nautical Twilight 5:57 AM EST 5:03 PM EST
Astronomical Twilight 5:21 AM EST 5:40 PM EST
Moon 2:28 AM EST (12/9) 1:05 PM EST (12/9)
Length of Visible Light 9h 49m
Length of Day
8h 39m
Waning Crescent, 19% of the Moon is Illuminated
Dec 9
Waning Crescent
Dec 13
New
Dec 20
First Quarter
Dec 28
Full
Jan 4
Last Quarter

Hourly Weather History & Observations

Time (EST) Temp. Windchill Dew Point Humidity Pressure Visibility Wind Dir Wind Speed Gust Speed Precip Events Conditions
12:25 AM 36.1 °F 28.7 °F - N/A% 29.81 in - SSW 10.4 mph 18.4 mph N/A   Unknown
1:25 AM 35.8 °F 30.1 °F - N/A% 29.84 in - SSW 6.9 mph 13.8 mph N/A   Unknown
2:25 AM 34.7 °F 30.6 °F - N/A% 29.88 in - Variable 4.6 mph - N/A   Unknown
3:25 AM 33.3 °F 30.2 °F 30.6 °F 90% 29.91 in - Variable 3.5 mph 16.1 mph N/A   Unknown
4:25 AM 32.7 °F 28.3 °F 29.3 °F 87% 29.96 in - Variable 4.6 mph - N/A   Unknown
5:25 AM 32.5 °F 28.1 °F 28.2 °F 84% 29.99 in - Variable 4.6 mph 13.8 mph N/A   Unknown
6:25 AM 32.2 °F 25.0 °F 28.2 °F 85% 30.04 in - WSW 8.1 mph 18.4 mph N/A   Unknown
7:25 AM 31.1 °F 26.4 °F 27.3 °F 86% 30.08 in - Variable 4.6 mph 12.7 mph N/A   Unknown
8:25 AM 31.5 °F 28.1 °F 26.4 °F 82% 30.14 in - Variable 3.5 mph 12.7 mph N/A   Unknown
9:25 AM 30.9 °F 25.2 °F 25.3 °F 80% 30.16 in - Variable 5.8 mph 12.7 mph N/A   Unknown
10:25 AM 31.5 °F 24.9 °F 23.9 °F 74% 30.19 in - WSW 6.9 mph 12.7 mph N/A   Unknown
11:25 AM 30.9 °F 26.2 °F 23.2 °F 73% 30.21 in - Variable 4.6 mph - N/A   Unknown
12:25 PM 31.8 °F 27.3 °F 21.7 °F 66% 30.21 in - Variable 4.6 mph 12.7 mph N/A   Unknown
1:25 PM 32.0 °F 27.5 °F 21.0 °F 64% 30.22 in - Variable 4.6 mph 18.4 mph N/A   Unknown
2:25 PM 31.5 °F 24.9 °F 18.9 °F 60% 30.23 in - WSW 6.9 mph 13.8 mph N/A   Unknown
3:25 PM 29.3 °F - 19.4 °F 67% 30.29 in - Variable 2.3 mph - N/A   Unknown
4:25 PM 26.8 °F - 18.7 °F 72% 30.32 in - Calm Calm - N/A   Unknown
5:25 PM 24.6 °F - 18.1 °F 76% 30.31 in - Calm Calm - 0.00 in   Unknown
6:25 PM 22.3 °F - 18.1 °F 84% 30.34 in - Variable 2.3 mph - N/A   Unknown
7:25 PM 21.7 °F - 18.0 °F 85% 30.35 in - Calm Calm - N/A   Unknown
8:25 PM 21.4 °F - 18.1 °F 87% 30.36 in - Calm Calm - N/A   Unknown
9:25 PM 21.4 °F - 18.0 °F 87% 30.35 in - Calm Calm - 0.01 in   Unknown
10:25 PM 20.5 °F - 18.0 °F 90% 30.33 in - Calm Calm - 0.00 in   Unknown
11:25 PM 19.6 °F - 17.8 °F 93% 30.31 in - Calm Calm - 0.00 in   Unknown